• In Deutschland
  • Länderverzeichnis
  • Für 7 Tage
  • Wassertemperatur
  • Satellitenkarten
  • Wetterkarte
  • Widgets
  • user-avatar
    Anmelden

    Stündliche Wetter Freiburg

    Heute, 23 Oktober, Montag

    Zeit Temperatur Niederschläge Wind Luftdruck Luftfeuchtigkeit
    00:00 +7°C° 0,2 mm 3 m/S 741 mmHg 90%
    01:00 +7°C° 0 mm 3 m/S 740 mmHg 91%
    02:00 +7°C° 0,2 mm 3 m/S 741 mmHg 92%
    03:00 +7°C° 0,2 mm 3 m/S 741 mmHg 92%
    04:00 +7°C° 0,2 mm 3 m/S 741 mmHg 92%
    05:00 +7°C° 0,1 mm 2 m/S 741 mmHg 92%
    06:00 +7°C° 0,1 mm 2 m/S 741 mmHg 92%
    07:00 +7°C° 0 mm 2 m/S 741 mmHg 92%
    08:00 +8°C° 0,1 mm 2 m/S 742 mmHg 90%
    09:00 +9°C° 0,1 mm 3 m/S 742 mmHg 87%
    10:00 +10°C° 0,1 mm 3 m/S 742 mmHg 84%
    11:00 +10°C° 0,1 mm 3 m/S 742 mmHg 82%
    12:00 +11°C° 0,1 mm 3 m/S 743 mmHg 80%
    13:00 +11°C° 0 mm 3 m/S 743 mmHg 77%
    14:00 +11°C° 0,1 mm 3 m/S 743 mmHg 78%
    15:00 +11°C° 0,1 mm 3 m/S 743 mmHg 79%
    16:00 +10°C° 0,1 mm 3 m/S 743 mmHg 81%
    17:00 +10°C° 0 mm 3 m/S 743 mmHg 84%
    18:00 +9°C° 0 mm 2 m/S 744 mmHg 86%
    19:00 +9°C° 0 mm 2 m/S 744 mmHg 89%
    20:00 +9°C° 0 mm 2 m/S 744 mmHg 89%
    21:00 +9°C° 0 mm 2 m/S 744 mmHg 89%
    22:00 +9°C° 0 mm 2 m/S 745 mmHg 89%
    23:00 +9°C° 0 mm 2 m/S 745 mmHg 90%

    Morgen, 24 Oktober, Dienstag

    Zeit Temperatur Niederschläge Wind Luftdruck Luftfeuchtigkeit
    00:00 +8°C° 0 mm 2 m/S 745 mmHg 91%
    01:00 +9°C° 0 mm 1 m/S 745 mmHg 91%
    02:00 +9°C° 0 mm 1 m/S 745 mmHg 91%
    03:00 +9°C° 0 mm 1 m/S 745 mmHg 90%
    04:00 +9°C° 0 mm 1 m/S 745 mmHg 90%
    05:00 +9°C° 0 mm 1 m/S 745 mmHg 89%
    06:00 +9°C° 0 mm 1 m/S 745 mmHg 89%
    07:00 +9°C° 0 mm 1 m/S 745 mmHg 88%
    08:00 +10°C° 0 mm 1 m/S 745 mmHg 83%
    09:00 +12°C° 0 mm 1 m/S 745 mmHg 78%
    10:00 +13°C° 0 mm 1 m/S 745 mmHg 73%
    11:00 +14°C° 0 mm 1 m/S 745 mmHg 69%
    12:00 +16°C° 0 mm 1 m/S 745 mmHg 65%
    13:00 +18°C° 0 mm 1 m/S 745 mmHg 61%
    14:00 +18°C° 0 mm 1 m/S 744 mmHg 64%
    15:00 +18°C° 0 mm 1 m/S 744 mmHg 66%
    16:00 +18°C° 0 mm 1 m/S 744 mmHg 69%
    17:00 +16°C° 0 mm 1 m/S 744 mmHg 73%
    18:00 +14°C° 0 mm 1 m/S 744 mmHg 77%
    19:00 +13°C° 0 mm 1 m/S 745 mmHg 82%
    20:00 +12°C° 0 mm 1 m/S 745 mmHg 83%
    21:00 +12°C° 0 mm 1 m/S 745 mmHg 83%
    22:00 +12°C° 0 mm 1 m/S 745 mmHg 84%
    23:00 +11°C° 0 mm 1 m/S 744 mmHg 85%

    übermorgen, 25 Oktober, Mittwoch

    Zeit Temperatur Niederschläge Wind Luftdruck Luftfeuchtigkeit
    00:00 +11°C° 0 mm 1 m/S 744 mmHg 85%
    01:00 +11°C° 0 mm 1 m/S 744 mmHg 86%
    02:00 +11°C° 0 mm 1 m/S 744 mmHg 86%
    03:00 +11°C° 0 mm 1 m/S 744 mmHg 86%
    04:00 +11°C° 0 mm 1 m/S 744 mmHg 86%
    05:00 +11°C° 0 mm 1 m/S 744 mmHg 87%
    06:00 +11°C° 0 mm 1 m/S 744 mmHg 87%
    07:00 +11°C° 0 mm 1 m/S 744 mmHg 87%
    08:00 +13°C° 0 mm 1 m/S 744 mmHg 81%
    09:00 +15°C° 0 mm 1 m/S 744 mmHg 74%
    10:00 +18°C° 0 mm 1 m/S 745 mmHg 68%
    11:00 +19°C° 0 mm 1 m/S 745 mmHg 64%
    12:00 +20°C° 0 mm 1 m/S 744 mmHg 61%
    13:00 +22°C° 0 mm 1 m/S 744 mmHg 57%
    14:00 +21°C° 0 mm 1 m/S 744 mmHg 60%
    15:00 +21°C° 0 mm 1 m/S 744 mmHg 63%
    16:00 +21°C° 0 mm 1 m/S 744 mmHg 67%
    17:00 +19°C° 0 mm 1 m/S 744 mmHg 71%
    18:00 +16°C° 0 mm 1 m/S 744 mmHg 76%
    19:00 +15°C° 0 mm 1 m/S 745 mmHg 81%
    20:00 +14°C° 0 mm 1 m/S 745 mmHg 80%
    21:00 +14°C° 0 mm 1 m/S 745 mmHg 80%
    22:00 +14°C° 0 mm 1 m/S 745 mmHg 80%
    23:00 +14°C° 0 mm 1 m/S 745 mmHg 81%

    26 Oktober, Donnerstag

    Zeit Temperatur Niederschläge Wind Luftdruck Luftfeuchtigkeit
    00:00 +13°C° 0 mm 1 m/S 745 mmHg 82%
    01:00 +13°C° 0 mm 1 m/S 745 mmHg 83%
    02:00 +13°C° 0 mm 1 m/S 745 mmHg 84%
    03:00 +13°C° 0 mm 1 m/S 745 mmHg 84%
    04:00 +12°C° 0 mm 1 m/S 745 mmHg 84%
    05:00 +12°C° 0 mm 1 m/S 745 mmHg 84%
    06:00 +12°C° 0 mm 1 m/S 745 mmHg 83%
    07:00 +12°C° 0 mm 1 m/S 745 mmHg 83%
    08:00 +14°C° 0 mm 1 m/S 745 mmHg 76%
    09:00 +16°C° 0 mm 1 m/S 745 mmHg 69%
    10:00 +19°C° 0 mm 1 m/S 745 mmHg 62%
    11:00 +20°C° 0 mm 1 m/S 745 mmHg 58%
    12:00 +22°C° 0 mm 1 m/S 745 mmHg 53%
    13:00 +23°C° 0 mm 1 m/S 745 mmHg 49%
    14:00 +22°C° 0 mm 1 m/S 745 mmHg 53%
    15:00 +22°C° 0 mm 1 m/S 744 mmHg 57%
    16:00 +22°C° 0 mm 1 m/S 744 mmHg 61%
    17:00 +20°C° 0 mm 1 m/S 744 mmHg 67%
    18:00 +18°C° 0 mm 1 m/S 744 mmHg 72%
    19:00 +15°C° 0 mm 1 m/S 744 mmHg 77%
    20:00 +15°C° 0 mm 1 m/S 744 mmHg 78%
    21:00 +14°C° 0 mm 1 m/S 744 mmHg 80%
    22:00 +14°C° 0 mm 1 m/S 744 mmHg 81%
    23:00 +14°C° 0 mm 1 m/S 744 mmHg 82%

    27 Oktober, Freitag

    Zeit Temperatur Niederschläge Wind Luftdruck Luftfeuchtigkeit
    00:00 +13°C° 0 mm 1 m/S 744 mmHg 83%
    01:00 +13°C° 0 mm 1 m/S 744 mmHg 83%
    02:00 +13°C° 0 mm 1 m/S 744 mmHg 83%
    03:00 +13°C° 0 mm 1 m/S 744 mmHg 83%
    04:00 +13°C° 0 mm 1 m/S 744 mmHg 82%
    05:00 +13°C° 0 mm 1 m/S 743 mmHg 83%
    06:00 +13°C° 0 mm 2 m/S 743 mmHg 84%
    07:00 +13°C° 0 mm 2 m/S 743 mmHg 84%
    08:00 +14°C° 0 mm 2 m/S 743 mmHg 80%
    09:00 +15°C° 0 mm 2 m/S 743 mmHg 75%
    10:00 +17°C° 0 mm 3 m/S 743 mmHg 71%
    11:00 +18°C° 0 mm 3 m/S 743 mmHg 67%
    12:00 +19°C° 0 mm 4 m/S 743 mmHg 63%
    13:00 +19°C° 0 mm 4 m/S 742 mmHg 60%
    14:00 +19°C° 0,1 mm 4 m/S 742 mmHg 64%
    15:00 +18°C° 0,1 mm 4 m/S 742 mmHg 69%
    16:00 +17°C° 0,1 mm 4 m/S 742 mmHg 73%
    17:00 +16°C° 0,4 mm 3 m/S 743 mmHg 79%
    18:00 +14°C° 0,4 mm 3 m/S 743 mmHg 84%
    19:00 +13°C° 0,4 mm 3 m/S 743 mmHg 89%
    20:00 +12°C° 0,2 mm 3 m/S 744 mmHg 89%
    21:00 +12°C° 0,2 mm 2 m/S 744 mmHg 90%
    22:00 +10°C° 0,2 mm 2 m/S 744 mmHg 90%
    23:00 +9°C° 0 mm 2 m/S 744 mmHg 91%

    28 Oktober, Samstag

    Zeit Temperatur Niederschläge Wind Luftdruck Luftfeuchtigkeit
    00:00 +9°C° 0 mm 1 m/S 744 mmHg 92%
    01:00 +8°C° 0 mm 1 m/S 745 mmHg 93%
    02:00 +8°C° 0 mm 1 m/S 744 mmHg 93%
    03:00 +8°C° 0 mm 1 m/S 744 mmHg 93%
    04:00 +6°C° 0 mm 0 m/S 744 mmHg 93%
    05:00 +7°C° 0 mm 1 m/S 744 mmHg 93%
    06:00 +7°C° 0 mm 1 m/S 744 mmHg 93%
    07:00 +7°C° 0 mm 1 m/S 744 mmHg 93%
    08:00 +8°C° 0 mm 1 m/S 744 mmHg 89%
    09:00 +9°C° 0 mm 1 m/S 744 mmHg 85%
    10:00 +9°C° 0 mm 2 m/S 744 mmHg 80%
    11:00 +10°C° 0 mm 2 m/S 744 mmHg 76%
    12:00 +10°C° 0 mm 3 m/S 743 mmHg 71%
    13:00 +11°C° 0 mm 3 m/S 743 mmHg 66%
    14:00 +11°C° 0 mm 3 m/S 743 mmHg 66%
    15:00 +11°C° 0 mm 3 m/S 743 mmHg 66%
    16:00 +10°C° 0 mm 3 m/S 743 mmHg 67%
    17:00 +10°C° 0 mm 3 m/S 743 mmHg 70%
    18:00 +9°C° 0 mm 3 m/S 743 mmHg 73%
    19:00 +9°C° 0 mm 3 m/S 743 mmHg 77%
    20:00 +8°C° 0 mm 3 m/S 743 mmHg 80%
    21:00 +8°C° 0 mm 2 m/S 743 mmHg 84%
    22:00 +7°C° 0 mm 2 m/S 743 mmHg 87%
    23:00 +7°C° 0 mm 2 m/S 743 mmHg 89%

    29 Oktober, Sonntag

    Zeit Temperatur Niederschläge Wind Luftdruck Luftfeuchtigkeit
    00:00 +6°C° 0 mm 2 m/S 743 mmHg 90%
    01:00 +6°C° 0 mm 2 m/S 743 mmHg 92%
    02:00 +6°C° 0 mm 2 m/S 743 mmHg 92%
    03:00 +7°C° 0 mm 1 m/S 743 mmHg 93%
    04:00 +6°C° 0 mm 1 m/S 743 mmHg 93%
    05:00 +6°C° 0 mm 1 m/S 743 mmHg 93%
    06:00 +6°C° 0 mm 1 m/S 743 mmHg 93%
    07:00 +6°C° 0 mm 1 m/S 743 mmHg 93%
    08:00 +8°C° 0 mm 1 m/S 743 mmHg 87%
    09:00 +9°C° 0 mm 1 m/S 742 mmHg 82%
    10:00 +10°C° 0 mm 1 m/S 742 mmHg 76%
    11:00 +10°C° 0 mm 2 m/S 742 mmHg 73%
    12:00 +12°C° 0 mm 2 m/S 741 mmHg 69%
    13:00 +13°C° 0 mm 2 m/S 740 mmHg 65%
    14:00 +13°C° 0,1 mm 2 m/S 740 mmHg 68%
    15:00 +12°C° 0,1 mm 2 m/S 740 mmHg 71%
    16:00 +12°C° 0,1 mm 2 m/S 739 mmHg 74%
    17:00 +10°C° 0,2 mm 2 m/S 739 mmHg 78%
    18:00 +10°C° 0,2 mm 3 m/S 739 mmHg 83%
    19:00 +9°C° 0,2 mm 3 m/S 739 mmHg 87%
    20:00 +8°C° 0 mm 3 m/S 739 mmHg 89%
    21:00 +8°C° 0 mm 3 m/S 739 mmHg 90%
    22:00 +7°C° 0 mm 3 m/S 739 mmHg 92%
    23:00 +8°C° 0,4 mm 3 m/S 739 mmHg 91%
    Mehr zeigen